| time (UTC) | temp F | wind direction | speed knots | gust knots | rain 1hr in | rain 24hr in | rain mn in | humidity % | barometer mb |
| 20260906220059 | 95 | 0.0 | 0.0 | 0.00 | 0.02 | 0.02 | 58 | 1008.7 | |
| 20260906214558 | 95 | 0.0 | 0.0 | 0.00 | 0.02 | 0.02 | 58 | 1008.7 | |
| 20260906213040 | 94 | 0.0 | 0.0 | 0.00 | 0.02 | 0.02 | 58 | 1008.7 | |
| 20260906211538 | 94 | 0.0 | 0.0 | 0.00 | 0.02 | 0.02 | 58 | 1009.0 | |
| 20260906210020 | 94 | 0.0 | 0.0 | 0.00 | 0.02 | 0.02 | 59 | 1009.1 | |
| 20260906204520 | 95 | 0.0 | 0.0 | 0.00 | 0.02 | 0.02 | 54 | 1009.2 | |
| 20260906203002 | 96 | 0.0 | 0.0 | 0.00 | 0.02 | 0.02 | 57 | 1009.1 | |
| 20260906201613 | 95 | 0.0 | 0.0 | 0.00 | 0.02 | 0.02 | 54 | 1009.2 | |
| 20260906200042 | 96 | 0.0 | 0.0 | 0.00 | 0.02 | 0.02 | 55 | 1009.1 | |
| 20260906194540 | 95 | 0.0 | 0.0 | 0.00 | 0.02 | 0.02 | 55 | 1009.6 | |
| 20260906193021 | 96 | 0.0 | 0.0 | 0.00 | 0.02 | 0.02 | 53 | 1009.7 | |
| 20260906191519 | 96 | 0.0 | 0.0 | 0.00 | 0.02 | 0.02 | 55 | 1010.1 | |
| 20260906190057 | 94 | 0.0 | 0.0 | 0.00 | 0.02 | 0.02 | 56 | 1010.4 | |
| 20260906184554 | 94 | 0.0 | 0.0 | 0.00 | 0.02 | 0.02 | 58 | 1010.6 | |
| 20260906183058 | 93 | 0.0 | 0.0 | 0.00 | 0.02 | 0.02 | 58 | 1010.8 | |
| 20260906181534 | 93 | 0.0 | 0.0 | 0.00 | 0.02 | 0.02 | 60 | 1011.0 | |
| 20260906180019 | 93 | 0.0 | 0.0 | 0.00 | 0.02 | 0.02 | 61 | 1011.3 | |
| 20260906174510 | 92 | 0.0 | 0.0 | 0.00 | 0.02 | 0.02 | 62 | 1011.4 | |
| 20260906173050 | 91 | 0.0 | 0.0 | 0.00 | 0.02 | 0.02 | 65 | 1011.6 | |
| 20260906171546 | 89 | 0.0 | 0.0 | 0.00 | 0.02 | 0.02 | 69 | 1011.8 | |
| 20260906170034 | 89 | 0.0 | 0.0 | 0.00 | 0.02 | 0.02 | 71 | 1012.0 | |
| 20260906164524 | 88 | 0.0 | 0.0 | 0.00 | 0.02 | 0.02 | 72 | 1012.3 | |
| 20260906163012 | 87 | 0.0 | 0.0 | 0.00 | 0.02 | 0.02 | 73 | 1012.5 | |
| 20260906161510 | 86 | 0.0 | 0.0 | 0.00 | 0.02 | 0.02 | 74 | 1012.5 | |
| 20260906160006 | 85 | 0.0 | 0.0 | 0.00 | 0.02 | 0.02 | 75 | 1012.6 | |
| 20260906154504 | 85 | 0.0 | 0.0 | 0.00 | 0.02 | 0.02 | 78 | 1012.7 | |
| 20260906153100 | 83 | 0.0 | 0.0 | 0.00 | 0.02 | 0.02 | 81 | 1012.7 | |
| 20260906151556 | 0 | 0.0 | 0.0 | 0.00 | 0.02 | 0.02 | 1012.6 | ||
| 20260906150056 | 0 | 0.0 | 0.0 | 0.00 | 0.02 | 0.02 | 1012.6 | ||
| 20260906144554 | 0 | 0.0 | 0.0 | 0.00 | 0.02 | 0.02 | 1012.7 | ||
| 20260906143025 | 0 | 0.0 | 0.0 | 0.00 | 0.02 | 0.02 | 1012.6 | ||
| 20260906141522 | 0 | 0.0 | 0.0 | 0.00 | 0.02 | 0.02 | 1012.6 | ||
| 20260906140100 | 0 | 0.0 | 0.0 | 0.00 | 0.02 | 0.02 | 1012.6 | ||
| 20260906134603 | 0 | 0.0 | 0.0 | 0.00 | 0.02 | 0.02 | 1012.7 | ||
| 20260906133035 | 0 | 0.0 | 0.0 | 0.00 | 0.02 | 0.02 | 1012.7 | ||
| 20260906131534 | 76 | 0.0 | 0.0 | 0.00 | 0.02 | 0.02 | 94 | 1012.7 | |
| 20260906130019 | 75 | 0.0 | 0.0 | 0.00 | 0.02 | 0.02 | 94 | 1012.4 | |
| 20260906124512 | 75 | 0.0 | 0.0 | 0.00 | 0.02 | 0.02 | 94 | 1012.2 | |
| 20260906123112 | 75 | 0.0 | 0.0 | 0.00 | 0.02 | 0.02 | 94 | 1012.1 | |
| 20260906121558 | 74 | 0.0 | 0.0 | 0.01 | 0.02 | 0.02 | 94 | 1011.4 | |
| 20260906120054 | 74 | 0.0 | 0.0 | 0.02 | 0.02 | 0.02 | 94 | 1011.5 | |
| 20260906114546 | 75 | 0.0 | 0.0 | 0.02 | 0.02 | 0.02 | 94 | 1011.5 | |
| 20260906113045 | 75 | 0.0 | 0.0 | 0.02 | 0.02 | 0.02 | 94 | 1011.8 | |
| 20260906111515 | 76 | 0.0 | 0.0 | 0.01 | 0.01 | 0.01 | 92 | 1011.7 | |
| 20260906110012 | 77 | 0.0 | 0.0 | 0.00 | 0.00 | 0.00 | 89 | 1011.7 | |
| 20260906104553 | 77 | 0.0 | 0.0 | 0.00 | 0.00 | 0.00 | 87 | 1011.8 | |
| 20260906103054 | 77 | 0.0 | 0.0 | 0.00 | 0.00 | 0.00 | 86 | 1011.7 | |
| 20260906101536 | 77 | 0.0 | 0.0 | 0.00 | 0.00 | 0.00 | 86 | 1012.0 | |
| 20260906100035 | 77 | 0.0 | 0.0 | 0.00 | 0.00 | 0.00 | 85 | 1012.3 | |
| 20260906094523 | 77 | 0.0 | 0.0 | 0.00 | 0.00 | 0.00 | 87 | 1012.3 | |
| 20260906093021 | 77 | 0.0 | 0.0 | 0.00 | 0.00 | 0.00 | 89 | 1012.0 | |
| 20260906091530 | 77 | 0.0 | 0.0 | 0.00 | 0.00 | 0.00 | 90 | 1011.6 | |
| 20260906090017 | 77 | 0.0 | 0.0 | 0.00 | 0.00 | 0.00 | 89 | 1011.3 | |
| 20260906084515 | 78 | 0.0 | 0.0 | 0.00 | 0.00 | 0.00 | 89 | 1011.4 | |
| 20260906083015 | 78 | 0.0 | 0.0 | 0.00 | 0.00 | 0.00 | 89 | 1011.3 | |
| 20260906081513 | 78 | 0.0 | 0.0 | 0.00 | 0.00 | 0.00 | 89 | 1011.2 | |
| 20260906080010 | 79 | 0.0 | 0.0 | 0.00 | 0.00 | 0.00 | 90 | 1011.4 | |
| 20260906074609 | 79 | 0.0 | 0.0 | 0.00 | 0.00 | 0.00 | 92 | 1011.6 | |
| 20260906073051 | 79 | 0.0 | 0.0 | 0.00 | 0.00 | 0.00 | 92 | 1011.5 | |
| 20260906071530 | 79 | 0.0 | 0.0 | 0.00 | 0.00 | 0.00 | 92 | 1011.5 | |
| 20260906070029 | 79 | 0.0 | 0.0 | 0.00 | 0.00 | 0.00 | 91 | 1011.4 | |
| 20260906064511 | 80 | 0.0 | 0.0 | 0.00 | 0.00 | 0.00 | 91 | 1011.5 | |
| 20260906063011 | 80 | 0.0 | 0.0 | 0.00 | 0.00 | 0.00 | 91 | 1011.4 | |
| 20260906061557 | 80 | 0.0 | 0.0 | 0.00 | 0.00 | 0.00 | 91 | 1011.4 | |
| 20260906060052 | 80 | 0.0 | 0.0 | 0.00 | 0.00 | 0.00 | 91 | 1011.7 | |
| 20260906054540 | 80 | 0.0 | 0.0 | 0.00 | 0.00 | 0.00 | 90 | 1011.9 | |
| 20260906053039 | 80 | 0.0 | 0.0 | 0.00 | 0.00 | 0.00 | 90 | 1011.7 | |
| 20260906051547 | 80 | 0.0 | 0.0 | 0.00 | 0.00 | 0.00 | 90 | 1012.1 | |
| 20260906050046 | 81 | 0.0 | 0.0 | 0.00 | 0.00 | 0.00 | 90 | 1012.1 | |
| 20260906044539 | 81 | 0.0 | 0.0 | 0.00 | 0.00 | 0.00 | 89 | 1012.2 | |
| 20260906043038 | 81 | 0.0 | 0.0 | 0.00 | 0.00 | 0.00 | 88 | 1012.2 | |
| 20260906041541 | 82 | 0.0 | 0.0 | 0.00 | 0.00 | 0.00 | 88 | 1012.0 | |
| 20260906040042 | 82 | 0.0 | 0.0 | 0.00 | 0.00 | 0.00 | 87 | 1012.4 | |
| 20260906034518 | 82 | 0.0 | 0.0 | 0.00 | 0.00 | 0.00 | 86 | 1012.3 | |
| 20260906033034 | 82 | 0.0 | 0.0 | 0.00 | 0.00 | 0.00 | 87 | 1012.3 | |
| 20260906031606 | 82 | 0.0 | 0.0 | 0.00 | 0.00 | 0.00 | 87 | 1012.6 | |
| 20260906030101 | 82 | 0.0 | 0.0 | 0.00 | 0.00 | 0.00 | 86 | 1012.3 | |
| 20260906024543 | 82 | 0.0 | 0.0 | 0.00 | 0.00 | 0.00 | 85 | 1012.0 | |
| 20260906023043 | 83 | 0.0 | 0.0 | 0.00 | 0.00 | 0.00 | 84 | 1011.9 | |
| 20260906021525 | 83 | 0.0 | 0.0 | 0.00 | 0.00 | 0.00 | 83 | 1011.8 | |
| 20260906020025 | 84 | 0.0 | 0.0 | 0.00 | 0.00 | 0.00 | 82 | 1011.8 | |
| 20260906014506 | 85 | 0.0 | 0.0 | 0.00 | 0.00 | 0.00 | 81 | 1011.5 | |
| 20260906013012 | 86 | 0.0 | 0.0 | 0.00 | 0.00 | 0.00 | 79 | 1011.2 | |
| 20260906011550 | 86 | 0.0 | 0.0 | 0.00 | 0.00 | 0.00 | 78 | 1010.8 | |
| 20260906010048 | 87 | 0.0 | 0.0 | 0.00 | 0.00 | 0.00 | 77 | 1010.4 | |
| 20260906004531 | 88 | 0.0 | 0.0 | 0.00 | 0.00 | 0.00 | 76 | 1010.2 | |
| 20260906003030 | 89 | 0.0 | 0.0 | 0.00 | 0.00 | 0.00 | 73 | 1010.3 | |
| 20260906001512 | 90 | 0.0 | 0.0 | 0.00 | 0.00 | 0.00 | 70 | 1010.3 | |
| 20260906000014 | 90 | 0.0 | 0.0 | 0.00 | 0.00 | 0.00 | 66 | 1010.2 | |
| 20260905234556 | 92 | 0.0 | 0.0 | 0.00 | 0.00 | 0.00 | 64 | 1010.3 | |
| 20260905233053 | 94 | 0.0 | 0.0 | 0.00 | 0.00 | 0.00 | 62 | 1010.0 | |
| 20260905231543 | 95 | 0.0 | 0.0 | 0.00 | 0.00 | 0.00 | 55 | 1010.1 | |
| 20260905230049 | 96 | 0.0 | 0.0 | 0.00 | 0.00 | 0.00 | 55 | 1010.1 | |
| 20260905224559 | 95 | 0.0 | 0.0 | 0.00 | 0.00 | 0.00 | 55 | 1010.0 | |
| 20260905223042 | 94 | 0.0 | 0.0 | 0.00 | 0.00 | 0.00 | 56 | 1010.0 | |
| 20260905221555 | 95 | 0.0 | 0.0 | 0.00 | 0.00 | 0.00 | 54 | 1009.9 |